RH
38 44 43 43 45 49 49 46 44 51 62 68 65 61 62 63 59 60 56 51 47 47 45 45 45 45 46 48 47 47 44 41 41 42 42 40 40 41 40 39 38 38 39
38 38 41 44 47 49 51 53 53 61 62 60 60 58 62 62 63 58 52 48 45 45 42 42 45 46 46 46 47 47 47 46 45 43 41 42 44 43 44 44 47 44 42
37 34 37 40 41 45 48 52 55 61 61 63 64 68 63 64 61 52 47 45 45 42 46 50 47 46 46 49 53 57 55 53 51 46 48 47 45 43 44 46 46 44 40
42 41 43 46 44 45 49 52 55 64 71 65 71 68 64 60 50 47 44 43 45 50 52 50 50 51 55 61 67 66 58 53 49 47 48 47 47 49 49 48 49 45 41
41 44 45 47 50 56 58 59 68 71 65 63 68 66 60 47 44 44 44 48 53 52 51 52 58 54 53 65 68 64 62 52 46 49 46 46 49 53 53 50 48 47 44
42 42 49 47 51 61 66 71 73 63 62 64 67 58 53 47 46 46 49 52 52 57 64 63 71 75 77 67 63 63 58 45 46 45 47 50 51 51 54 53 50 49 47
42 42 47 53 62 73 69 66 66 59 59 62 55 57 55 49 49 50 52 56 56 68 84 63 82 90 82 66 57 55 43 44 46 48 51 53 55 58 56 56 53 50 46
44 49 53 60 69 73 63 58 54 50 54 53 58 56 51 51 54 56 60 73 74 84 84 78 72 66 64 60 57 52 44 46 51 57 60 58 58 58 59 58 55 53 54
35 42 46 54 60 54 55 48 43 46 49 51 52 53 56 59 60 66 78 74 90 96 97 82 71 56 55 58 55 49 54 63 65 63 59 58 54 53 52 53 47 57 48
32 35 42 48 49 46 43 40 42 44 47 49 50 56 66 67 71 75 78 83 90 96 89 65 67 63 54 58 58 68 69 67 63 58 56 52 44 42 42 43 42 41 45
34 35 38 43 40 41 40 40 43 44 44 47 54 62 70 72 75 75 88 96 87 79 68 61 62 59 61 67 77 73 62 57 58 56 52 45 40 38 37 37 39 45 50
41 40 41 40 43 44 48 46 48 53 58 64 69 73 77 80 77 86 83 77 76 66 64 64 62 61 74 79 65 58 59 58 58 55 47 38 38 36 37 42 49 54 58
42 44 45 46 47 52 55 53 53 60 73 81 83 86 88 79 81 77 74 66 61 65 65 65 70 77 69 66 64 56 56 55 52 47 40 36 35 37 43 50 58 62 66
37 41 46 50 55 63 71 68 70 75 88 89 87 88 85 81 72 60 60 64 69 66 67 77 76 71 65 59 57 54 50 48 44 41 36 33 34 41 48 58 63 69 73
40 43 47 54 59 68 68 76 79 80 87 87 88 80 69 61 56 58 67 69 67 77 83 78 70 62 56 52 49 45 43 43 42 36 32 32 36 44 54 64 68 72 59
41 42 47 51 58 70 74 71 74 87 90 88 76 66 60 59 63 67 69 70 86 84 76 68 60 53 49 43 38 38 39 41 34 32 32 35 42 50 57 62 65 58 54
40 42 45 52 56 59 61 78 85 85 76 66 60 59 62 67 67 69 78 89 79 73 66 60 52 45 39 36 32 35 37 36 34 32 36 42 46 51 56 61 62 57 57
42 43 44 51 54 57 67 66 60 59 57 58 61 65 71 72 77 85 90 79 71 66 59 47 38 37 37 29 29 34 37 39 35 34 40 47 51 55 58 62 60 57 58
38 41 44 47 51 53 52 53 51 54 59 65 68 72 75 83 93 86 83 74 62 51 42 36 36 36 23 28 32 35 39 40 36 38 45 51 55 58 60 59 57 59 55
36 37 42 48 52 51 50 51 57 63 68 70 75 80 84 95 87 80 68 55 44 39 35 28 26 24 25 29 33 38 44 41 40 44 47 54 57 62 64 61 60 60 56
38 41 44 47 48 50 55 61 66 68 71 75 82 91 90 84 73 57 48 41 37 29 23 24 24 27 28 28 34 43 46 42 45 48 51 56 60 65 69 68 66 63 62
40 42 44 48 52 57 61 64 67 74 79 87 90 85 74 61 48 41 34 26 22 23 24 24 26 32 32 36 40 41 42 46 48 51 58 67 71 73 75 75 73 68 67
45 48 52 57 60 62 66 76 80 84 83 79 71 64 51 42 35 26 24 23 26 27 27 30 33 36 43 47 45 41 40 45 50 53 60 70 75 79 81 80 81 80 76
53 56 59 62 67 75 80 80 79 75 74 67 56 44 36 28 25 25 26 28 31 35 38 42 46 44 45 49 52 50 48 49 56 62 64 69 77 82 86 86 85 86 84
62 64 67 76 81 78 76 74 73 66 59 46 35 29 25 24 24 24 27 31 32 41 48 50 54 50 49 53 61 69 65 62 64 67 67 73 79 83 88 90 91 89 87
69 76 80 79 76 74 75 70 60 47 37 31 26 22 20 20 20 20 19 24 26 28 32 35 42 45 49 59 74 80 77 75 76 73 68 74 81 86 90 93 98 94 87